Weather History for KSRQ - November, 2012

Change the Weather History Date:

Wednesday, November 21, 2012

  Actual Average Record
Temperature  
Mean Temperature 63 °F 68 °F  
Max Temperature 73 °F 78 °F 89 °F (1988)
Min Temperature 53 °F 58 °F 33 °F (1914)
Degree Days  
Heating Degree Days 2 1  
Month to date heating degree days 17 11  
Since 1 July heating degree days 17 14  
Cooling Degree Days 0 4  
Month to date cooling degree days 65 121  
Year to date cooling degree days 3713 3265  
Growing Degree Days 13 (Base 50)    
Moisture  
Dew Point 54 °F    
Average Humidity 80    
Maximum Humidity 100    
Minimum Humidity 41    
Precipitation  
Precipitation 0.00 in 0.06 in 1.05 in (1983)
Month to date precipitation 0.35 1.35  
Year to date precipitation 44.04 49.90  
Sea Level Pressure  
Sea Level Pressure 30.04 in    
Wind  
Wind Speed 6 mph (North)    
Max Wind Speed 16 mph    
Max Gust Speed 22 mph    
Visibility 7 miles    
Events Fog    
T = Trace of Precipitation, MM = Missing Value Source: NWS Daily Summary

Daily Weather History Graph

Daily Weather History Graph

Search for Another Location

Airport or City:

Trip Planner

Search our weather history database for the weather conditions in past years. The results will help you decide how hot, cold, wet, or windy it might be!

Date:

Astronomy

Nov. 21, 2012 Rise Set
Actual Time 6:55 AM EST 5:36 PM EST
Civil Twilight 6:30 AM EST 6:01 PM EST
Nautical Twilight 6:02 AM EST 6:29 PM EST
Astronomical Twilight 5:34 AM EST 6:57 PM EST
Moon 1:22 PM EST (11/21) 12:46 AM EST (11/21)
Length of Visible Light 11h 30m
Length of Day
10h 40m
First Quarter, 61% of the Moon is Illuminated
Nov 21
First Quarter
Nov 28
Full
Dec 6
Last Quarter
Dec 13
New
Dec 20
First Quarter

Hourly Weather History & Observations

Time (EST) Temp. Dew Point Humidity Pressure Visibility Wind Dir Wind Speed Gust Speed Precip Events Conditions
12:53 AM 57.9 °F 57.0 °F 97% 30.03 in 6.0 mi Calm Calm - N/A   Clear
1:26 AM 55.4 °F 55.4 °F 100% 30.02 in 2.5 mi North 3.5 mph - N/A   Clear
1:34 AM 57.2 °F 55.4 °F 94% 30.02 in 4.0 mi North 3.5 mph - N/A   Clear
1:53 AM 57.0 °F 55.9 °F 96% 30.02 in 8.0 mi Calm Calm - N/A   Clear
2:16 AM 55.4 °F 55.4 °F 100% 30.02 in 1.5 mi Calm Calm - N/A   Clear
2:41 AM 55.4 °F 55.4 °F 100% 30.02 in 0.8 mi Calm Calm - N/A   Clear
2:53 AM 55.0 °F 55.0 °F 100% 30.01 in 0.5 mi Calm Calm - N/A Fog Fog
3:34 AM 55.4 °F 53.6 °F 94% 30.02 in 1.0 mi Calm Calm - N/A   Clear
3:45 AM 53.6 °F 53.6 °F 100% 30.02 in 3.0 mi Calm Calm - N/A   Clear
3:50 AM 53.6 °F 53.6 °F 100% 30.02 in 1.5 mi Calm Calm - N/A   Clear
3:53 AM 54.0 °F 54.0 °F 100% 30.02 in 1.0 mi NNW 3.5 mph - N/A   Clear
4:00 AM 53.6 °F 53.6 °F 100% 30.03 in 0.8 mi NNW 3.5 mph - N/A   Clear
4:05 AM 53.6 °F 53.6 °F 100% 30.03 in 2.5 mi North 3.5 mph - N/A   Clear
4:12 AM 55.4 °F 53.6 °F 94% 30.03 in 7.0 mi North 3.5 mph - N/A   Clear
4:53 AM 55.9 °F 55.0 °F 97% 30.03 in 10.0 mi North 3.5 mph - N/A   Clear
5:53 AM 57.0 °F 55.0 °F 93% 30.04 in 10.0 mi North 3.5 mph - N/A   Mostly Cloudy
6:53 AM 60.1 °F 57.0 °F 90% 30.05 in 10.0 mi North 4.6 mph - N/A   Overcast
7:53 AM 62.1 °F 57.0 °F 84% 30.06 in 10.0 mi NNE 3.5 mph - N/A   Overcast
8:53 AM 66.0 °F 54.0 °F 65% 30.08 in 10.0 mi North 8.1 mph - N/A   Clear
9:53 AM 70.0 °F 53.1 °F 55% 30.09 in 10.0 mi NNE 8.1 mph - N/A   Clear
10:53 AM 71.1 °F 51.1 °F 49% 30.08 in 10.0 mi North 12.7 mph 18.4 mph N/A   Clear
11:53 AM 72.0 °F 48.9 °F 44% 30.06 in 10.0 mi North 15.0 mph 20.7 mph N/A   Clear
12:53 PM 72.0 °F 50.0 °F 46% 30.04 in 10.0 mi NNW 13.8 mph 21.9 mph N/A   Clear
1:53 PM 72.0 °F 50.0 °F 46% 30.01 in 10.0 mi NNE 9.2 mph - N/A   Clear
2:53 PM 73.0 °F 48.9 °F 42% 30.00 in 10.0 mi NNW 9.2 mph 18.4 mph N/A   Clear
3:53 PM 71.1 °F 54.0 °F 55% 30.00 in 10.0 mi NNW 11.5 mph - N/A   Clear
4:53 PM 68.0 °F 53.1 °F 59% 30.00 in 10.0 mi NNW 9.2 mph - N/A   Clear
5:53 PM 64.9 °F 54.0 °F 68% 30.01 in 10.0 mi NNW 8.1 mph - N/A   Clear
6:53 PM 63.0 °F 53.1 °F 70% 30.03 in 10.0 mi NNW 6.9 mph - N/A   Clear
7:53 PM 63.0 °F 53.1 °F 70% 30.05 in 10.0 mi North 6.9 mph - N/A   Clear
8:53 PM 62.1 °F 53.1 °F 72% 30.07 in 10.0 mi North 4.6 mph - N/A   Clear
9:53 PM 62.1 °F 53.1 °F 72% 30.08 in 10.0 mi North 4.6 mph - N/A   Clear
10:53 PM 61.0 °F 54.0 °F 78% 30.09 in 10.0 mi North 3.5 mph - N/A   Clear
11:53 PM 57.9 °F 54.0 °F 87% 30.09 in 10.0 mi NE 4.6 mph - N/A   Clear